This is the latest recevied weather packets stored in our database for station/object NL3D. If no packets are shown the sender has not sent any weather packets the latest 1 day(s).
| Time | Temp. | Humidity | Pressure | Rain* | Wind** | Luminosity | Snow |
|---|---|---|---|---|---|---|---|
| 1778027551 | 11.67° C | 47% | 1006.7 hPa | 0 mm | 1.34 m/s, 46° | 617 W/m² | - |
| 1778027247 | 10.56° C | 50% | 1006.7 hPa | 0 mm | 1.79 m/s, 181° | 673 W/m² | - |
| 1778026943 | 10° C | 51% | 1006.7 hPa | 0 mm | 0.89 m/s, 156° | 303 W/m² | - |
| 1778026639 | 10° C | 51% | 1006.7 hPa | 0 mm | 2.24 m/s, 162° | 297 W/m² | - |
| 1778026337 | 10° C | 51% | 1007 hPa | 0 mm | 1.34 m/s, 138° | 263 W/m² | - |
| 1778026034 | 10° C | 52% | 1007 hPa | 0 mm | 1.34 m/s, 8° | 236 W/m² | - |
| 1778025732 | 10.56° C | 50% | 1006.7 hPa | 0 mm | 0.89 m/s, 199° | 243 W/m² | - |
| 1778025429 | 10.56° C | 50% | 1006.7 hPa | 0 mm | 1.34 m/s, 174° | 259 W/m² | - |
| 1778025126 | 10.56° C | 48% | 1006.5 hPa | 0 mm | 0 m/s | 260 W/m² | - |
| 1778024823 | 10.56° C | 47% | 1006.8 hPa | 0 mm | 1.79 m/s, 274° | 273 W/m² | - |
| 1778024520 | 10.56° C | 49% | 1006.8 hPa | 0 mm | 0 m/s | 305 W/m² | - |
| 1778024216 | 10.56° C | 54% | 1006.7 hPa | 0 mm | 0 m/s | 288 W/m² | - |
| 1778023915 | 10.56° C | 58% | 1006.7 hPa | 0 mm | 0 m/s | 282 W/m² | - |
| 1778023612 | 10° C | 59% | 1006.6 hPa | 0 mm | 0.89 m/s, 48° | 316 W/m² | - |
| 1778023309 | 10.56° C | 59% | 1006.7 hPa | 0 mm | 0 m/s | 362 W/m² | - |
| 1778023006 | 10° C | 58% | 1007 hPa | 0 mm | 0.89 m/s, 91° | 287 W/m² | - |
| 1778022705 | 10° C | 60% | 1006.8 hPa | 0 mm | 0.89 m/s, 54° | 284 W/m² | - |
| 1778022402 | 10° C | 61% | 1006.9 hPa | 0 mm | 0.89 m/s, 222° | 228 W/m² | - |
| 1778022099 | 9.44° C | 62% | 1006.8 hPa | 0 mm | 0 m/s | 231 W/m² | - |
| 1778021795 | 9.44° C | 61% | 1006.7 hPa | 0 mm | 1.34 m/s, 357° | 211 W/m² | - |
| 1778021491 | 10° C | 60% | 1006.8 hPa | 0 mm | 0.89 m/s, 227° | 157 W/m² | - |
| 1778021188 | 10° C | 61% | 1006.8 hPa | 0 mm | 0.89 m/s, 93° | 197 W/m² | - |
| 1778020885 | 10° C | 63% | 1006.8 hPa | 0 mm | 0.89 m/s, 275° | 347 W/m² | - |
| 1778020583 | 9.44° C | 64% | 1006.6 hPa | 0 mm | 1.34 m/s, 168° | 322 W/m² | - |
| 1778020278 | 9.44° C | 62% | 1006.6 hPa | 0 mm | 1.79 m/s, 62° | 357 W/m² | - |
* Rain latest hour (hover to see other rain measurements)
** Current wind speed in m/s (hover to see current wind gust speed)